User: anonymous   Login
Location: Bushey
(51.6333°N, 0.3667°W)
Time: 12:27:43
(UTC+00:00)
Language:

FALCON 9 DEB - Orbit

View from above orbital plane
View from above orbital plane
View from above satellite
View from above satellite

Ground track
Ground track

The orbit data is extracted from the following two-line orbital elements,

1 46087U 20055BN  21137.83142308  .00014262  00000-0  14556-3 0  9999
2 46087  53.0074 345.5492 0012555 123.8942 236.3268 15.65310332 48905
Epoch (UTC): 17 May 2021 19:57:14
Eccentricity: 0.0012555
inclination: 53.0074°
perigee height: 364 km
apogee height: 381 km
right ascension of ascending node: 345.5492°
argument of perigee: 123.8942°
revolutions per day: 15.65310332
mean anomaly at epoch: 236.3268°
orbit number at epoch: 4890

The dashed part of the orbit path shows where the satellite is in the earth's shadow,  

DLR